Date String (YYYY-MM-DD hh:mm:ss) UTC,Instrument flags,Ambient pressure (hPa),Sample flow (lpm),Bypass flow (lpm),Sample temperature (°C),Ambient temperature (°C),ASC tube jacket temperature (°C),LED temperature (°C),Box temperature (°C),Sample RH (%),Span deviation,Mass concentration (μg/m³),Mass concentration (μg/m³),Mass concentration (μg/m³)
DateTimeUTC,F1_M11,P_M11,Q1_M11,Q2_M11,T1_M11,T2_M11,T3_M11,T4_M11,T5_M11,U1_M11,ZSPAN_M11,X0_M11,X2_M11,X1_M11
2022-04-22 23:00:00,,0804.6,5.00,0.00,29.5,27.0,00.0,38.4,31.1,05.5,0000.0,0029.68,0005.55,0002.20
2022-04-22 23:01:00,,0804.6,5.00,0.00,29.5,27.3,00.0,38.4,31.2,05.6,0000.0,0030.03,0005.59,0002.20
2022-04-22 23:02:00,,0804.6,5.00,0.00,29.5,27.6,00.0,38.4,31.3,05.8,0000.0,0030.67,0005.70,0002.22
2022-04-22 23:03:00,,0804.6,5.01,0.00,29.5,27.8,00.0,38.4,31.3,05.9,0000.0,0031.38,0005.73,0002.22
2022-04-22 23:04:00,,0804.7,5.00,0.00,29.6,28.0,00.0,38.4,31.4,06.1,0000.0,0031.46,0005.81,0002.22
2022-04-22 23:05:00,,0804.7,5.00,0.00,29.6,28.2,00.0,38.4,31.4,06.1,0000.0,0032.02,0005.87,0002.25
2022-04-22 23:06:00,,0804.7,4.99,0.00,29.6,28.3,00.0,38.4,31.4,06.1,0000.0,0032.54,0005.89,0002.23
2022-04-22 23:07:00,,0804.8,5.01,0.00,29.6,28.4,00.0,38.4,31.4,06.2,0000.0,0032.50,0005.85,0002.22
2022-04-22 23:08:00,,0804.8,5.00,0.00,29.6,28.5,00.0,38.5,31.4,06.2,0000.0,0032.20,0005.87,0002.20
2022-04-22 23:09:00,,0804.8,4.99,0.00,29.7,28.6,00.0,38.5,31.5,06.0,0000.0,0031.31,0005.85,0002.18
2022-04-22 23:10:00,,0804.7,5.01,0.00,29.7,28.7,00.0,38.5,31.5,06.0,0000.0,0029.86,0005.72,0002.15
2022-04-22 23:11:00,,0804.8,5.01,0.00,29.7,28.1,00.0,38.5,31.4,06.0,0000.0,0029.52,0005.67,0002.16
2022-04-22 23:12:00,,0804.8,4.99,0.00,29.6,26.3,00.0,38.5,31.1,06.0,0000.0,0029.27,0005.59,0002.17
2022-04-22 23:13:00,,0804.7,5.01,0.00,29.6,26.2,00.0,38.5,31.1,06.1,0000.0,0029.41,0005.43,0002.18
2022-04-22 23:14:00,,0804.7,4.98,0.00,29.5,26.5,00.0,38.5,31.1,06.2,0000.0,0029.82,0005.41,0002.18
2022-04-22 23:15:00,,0804.7,4.99,0.00,29.5,26.9,00.0,38.4,31.1,06.2,0000.0,0028.51,0005.48,0002.20
2022-04-22 23:16:00,,0804.6,5.01,0.00,29.5,27.3,00.0,38.4,31.2,06.1,0000.0,0026.10,0005.41,0002.18
2022-04-22 23:17:00,,0804.6,5.01,0.00,29.5,27.6,00.0,38.4,31.2,06.1,0000.0,0025.95,0005.33,0002.18
2022-04-22 23:18:00,,0804.6,4.99,0.00,29.5,27.8,00.0,38.4,31.3,06.1,0000.0,0024.23,0005.23,0002.19
2022-04-22 23:19:00,,0804.5,5.01,0.00,29.6,28.0,00.0,38.4,31.3,06.1,0000.0,0023.40,0005.21,0002.21
2022-04-22 23:20:00,,0804.6,4.99,0.00,29.6,28.2,00.0,38.4,31.4,06.1,0000.0,0022.92,0005.23,0002.23
2022-04-22 23:21:00,,0804.6,4.98,0.00,29.6,28.3,00.0,38.4,31.4,06.1,0000.0,0022.65,0005.24,0002.26
2022-04-22 23:22:00,,0804.6,5.01,0.00,29.6,28.4,00.0,38.5,31.5,06.1,0000.0,0023.30,0005.24,0002.25
2022-04-22 23:23:00,,0804.7,5.00,0.00,29.7,28.6,00.0,38.5,31.5,06.0,0000.0,0023.11,0005.29,0002.25
2022-04-22 23:24:00,,0804.8,4.99,0.00,29.7,28.6,00.0,38.5,31.5,05.9,0000.0,0022.55,0005.30,0002.24
2022-04-22 23:25:00,,0804.8,5.01,0.00,29.7,27.8,00.0,38.5,31.4,05.9,0000.0,0022.00,0005.23,0002.23
2022-04-22 23:26:00,,0804.9,5.01,0.00,29.6,26.0,00.0,38.5,31.0,06.1,0000.0,0021.13,0005.10,0002.21
2022-04-22 23:27:00,,0804.9,4.99,0.00,29.5,26.1,00.0,38.5,31.0,06.2,0000.0,0020.21,0005.03,0002.20
2022-04-22 23:28:00,,0804.8,5.00,0.00,29.5,26.5,00.0,38.5,31.1,06.4,0000.0,0019.43,0004.96,0002.21
2022-04-22 23:29:00,,0804.8,5.00,0.00,29.4,26.8,00.0,38.4,31.1,06.7,0000.0,0019.96,0004.96,0002.21
2022-04-22 23:30:00,,0804.8,5.01,0.00,29.5,27.2,00.0,38.4,31.2,06.7,0000.0,0020.01,0004.85,0002.21
2022-04-22 23:31:00,,0805.0,5.01,0.00,29.5,27.5,00.0,38.4,31.2,06.8,0000.0,0020.48,0004.74,0002.20
2022-04-22 23:32:00,,0805.1,4.99,0.00,29.5,27.7,00.0,38.4,31.2,06.9,0000.0,0020.04,0004.66,0002.19
2022-04-22 23:33:00,,0805.1,5.01,0.00,29.5,27.9,00.0,38.4,31.2,06.9,0000.0,0017.93,0004.52,0002.19
2022-04-22 23:34:00,,0805.1,5.00,0.00,29.5,28.1,00.0,38.4,31.3,07.0,0000.0,0017.63,0004.42,0002.19
2022-04-22 23:35:00,,0805.1,5.00,0.00,29.5,28.2,00.0,38.4,31.3,06.9,0000.0,0017.17,0004.36,0002.22
2022-04-22 23:36:00,,0805.1,4.99,0.00,29.6,28.4,00.0,38.4,31.4,06.9,0000.0,0015.94,0004.30,0002.23
2022-04-22 23:37:00,,0805.0,5.01,0.00,29.6,28.4,00.0,38.4,31.4,07.0,0000.0,0015.43,0004.21,0002.24
2022-04-22 23:38:00,,0805.0,4.99,0.00,29.6,28.5,00.0,38.4,31.4,07.0,0000.0,0016.56,0004.18,0002.25
2022-04-22 23:39:00,,0805.1,5.01,0.00,29.6,28.6,00.0,38.5,31.4,07.1,0000.0,0017.85,0004.21,0002.27
2022-04-22 23:40:00,,0805.1,5.00,0.00,29.6,28.5,00.0,38.5,31.4,07.1,0000.0,0017.44,0004.22,0002.28
2022-04-22 23:41:00,,0805.0,5.00,0.00,29.6,26.6,00.0,38.5,31.1,07.1,0000.0,0017.87,0004.28,0002.28
2022-04-22 23:42:00,,0804.9,5.01,0.00,29.5,25.9,00.0,38.5,30.9,07.2,0000.0,0017.07,0004.27,0002.28
2022-04-22 23:43:00,,0804.8,4.99,0.00,29.4,26.2,00.0,38.4,31.0,07.2,0000.0,0017.10,0004.27,0002.28
2022-04-22 23:44:00,,0804.9,5.00,0.00,29.4,26.6,00.0,38.4,31.0,07.2,0000.0,0017.46,0004.30,0002.29
2022-04-22 23:45:00,,0804.9,5.00,0.00,29.4,26.9,00.0,38.4,31.0,07.2,0000.0,0017.69,0004.30,0002.29
2022-04-22 23:46:00,,0804.9,5.00,0.00,29.4,27.3,00.0,38.4,31.1,07.2,0000.0,0017.42,0004.25,0002.27
2022-04-22 23:47:00,,0804.9,4.99,0.00,29.4,27.6,00.0,38.4,31.2,07.3,0000.0,0017.42,0004.25,0002.28
2022-04-22 23:48:00,,0804.9,5.02,0.00,29.4,27.8,00.0,38.4,31.2,07.3,0000.0,0017.20,0004.36,0002.30
2022-04-22 23:49:00,,0804.9,4.99,0.00,29.5,28.0,00.0,38.4,31.3,07.1,0000.0,0018.23,0004.56,0002.34
2022-04-22 23:50:00,,0805.1,5.01,0.00,29.5,28.1,00.0,38.4,31.3,07.1,0000.0,0020.10,0004.69,0002.36
2022-04-22 23:51:00,,0805.1,4.99,0.00,29.5,28.2,00.0,38.4,31.3,07.3,0000.0,0022.23,0004.88,0002.39
2022-04-22 23:52:00,,0805.1,5.01,0.00,29.5,28.3,00.0,38.4,31.3,07.2,0000.0,0022.62,0005.04,0002.42
2022-04-22 23:53:00,,0805.1,5.01,0.00,29.5,28.4,00.0,38.4,31.3,07.2,0000.0,0025.24,0005.33,0002.45
2022-04-22 23:54:00,,0805.1,5.00,0.00,29.5,28.5,00.0,38.4,31.4,07.3,0000.0,0029.41,0005.61,0002.51
2022-04-22 23:55:00,,0805.1,5.01,0.00,29.6,28.6,00.0,38.4,31.4,07.3,0000.0,0035.32,0005.95,0002.57
2022-04-22 23:56:00,,0805.2,5.00,0.00,29.6,28.6,00.0,38.4,31.4,07.3,0000.0,0038.36,0006.38,0002.66
2022-04-22 23:57:00,,0805.2,5.01,0.00,29.6,28.5,00.0,38.5,31.4,07.2,0000.0,0043.74,0006.90,0002.74
2022-04-22 23:58:00,,0805.2,4.99,0.00,29.6,26.7,00.0,38.5,31.0,07.4,0000.0,0048.41,0007.46,0002.84
2022-04-22 23:59:00,,0805.2,5.01,0.00,29.4,25.8,00.0,38.5,30.8,07.9,0000.0,0052.02,0007.80,0002.91
